GEO-KOMPSAT-2B

Last updated on Thu Nov 21 2024 00:02:44 GMT+0000 (Coordinated Universal Time)

1 45246U 20013B 24324.60598060 -.00000343 00000+0 00000+0 0 9995 2 45246 0.0170 243.0721 0002341 17.3505 145.1360 1.00267338 17515
UTC large
Height (km)
Speed (km/s)
/
Latitude / Longitude
Inclination (degrees)
Orbital Period (minutes)
Azimuth
Elevation
Range (km)
Doppler Factor

Next 0 passes for location: London (51.5072 / 0.1276)

Sorry there are no passes over London.